Shelton, WA

7:38 AM PST on November 23, 2017 (GMT -0800)
Sanderson

Weather History for KSHN - February, 2014

Change the Weather History Date:

Wednesday, February 12, 2014

  Actual Average Record
Temperature  
Mean Temperature 44 °F -  
Max Temperature 51 °F 49 °F 62 °F (1963)
Min Temperature 37 °F 36 °F 19 °F (1949)
Degree Days  
Heating Degree Days 21    
Moisture  
Dew Point 42 °F    
Average Humidity 86    
Maximum Humidity 97    
Minimum Humidity 54    
Precipitation  
Precipitation 0.87 in - - ()
Sea Level Pressure  
Sea Level Pressure 29.68 in    
Wind  
Wind Speed 11 mph (WSW)    
Max Wind Speed 28 mph    
Max Gust Speed 38 mph    
Visibility 6 miles    
Events Rain    
Averages and records for this station are not official NWS values.
T = Trace of Precipitation, MM = Missing Value Source: NWS Daily Summary

Daily Weather History Graph

Daily Weather History Graph

Search for Another Location

Airport or City:

Trip Planner

Search our weather history database for the weather conditions in past years. The results will help you decide how hot, cold, wet, or windy it might be!

Date:

Astronomy

Feb. 12, 2014 Rise Set
Actual Time 7:22 AM PST 5:32 PM PST
Civil Twilight 6:50 AM PST 6:03 PM PST
Nautical Twilight 6:14 AM PST 6:39 PM PST
Astronomical Twilight 5:39 AM PST 7:15 PM PST
Moon 3:48 PM PST (2/12) 5:45 AM PST (2/12)
Length of Visible Light 11h 13m
Length of Day
10h 10m
Waxing Gibbous, 96% of the Moon is Illuminated
Feb 12
Waxing Gibbous
Feb 14
Full
Feb 22
Last Quarter
Mar 1
New
Mar 8
First Quarter

Hourly Weather History & Observations

Time (PST) Temp. Windchill Dew Point Humidity Pressure Visibility Wind Dir Wind Speed Gust Speed Precip Events Conditions
12:06 AM 46.0 °F - 44.1 °F 93% 29.53 in 1.8 mi Calm Calm - 0.05 in Rain Rain
12:53 AM 45.0 °F 42.6 °F 43.0 °F 93% 29.50 in 1.5 mi NW 4.6 mph - 0.24 in Rain Rain
1:01 AM 45.0 °F 41.8 °F 44.1 °F 97% 29.49 in 1.8 mi NNW 5.8 mph - 0.04 in Rain Rain
1:08 AM 45.0 °F 41.8 °F 43.0 °F 93% 29.48 in 1.8 mi NNW 5.8 mph - 0.06 in Rain Rain
1:35 AM 45.0 °F 43.5 °F 43.0 °F 93% 29.47 in 1.8 mi Variable 3.5 mph - 0.14 in Rain Rain
1:50 AM 46.4 °F 42.9 °F 44.6 °F 93% 29.48 in 1.8 mi Variable 6.9 mph - 0.18 in Rain Rain
1:53 AM 46.9 °F - 45.0 °F 93% 29.48 in 2.0 mi Variable 6.9 mph - 0.18 in Rain Rain
2:40 AM 50.0 °F - 48.0 °F 93% 29.47 in 2.0 mi South 13.8 mph 26.5 mph 0.11 in Rain Rain
2:53 AM 51.1 °F - 48.0 °F 89% 29.49 in 2.5 mi SSW 21.9 mph 29.9 mph 0.14 in Rain Light Rain
3:00 AM 51.1 °F - 48.9 °F 92% 29.48 in 3.0 mi South 20.7 mph 31.1 mph 0.00 in Rain Light Rain
3:53 AM 51.1 °F - 48.0 °F 89% 29.56 in 2.5 mi SW 27.6 mph 38.0 mph 0.02 in Rain Light Rain
4:07 AM 50.0 °F - 48.0 °F 93% 29.56 in 4.0 mi SW 24.2 mph 38.0 mph 0.00 in Rain Light Rain
4:53 AM 48.9 °F - 46.0 °F 90% 29.60 in 4.0 mi SW 26.5 mph 32.2 mph 0.02 in Rain Light Rain
5:08 AM 48.0 °F - 46.0 °F 93% 29.60 in 4.0 mi SW 25.3 mph 32.2 mph 0.00 in Rain Light Rain
5:20 AM 48.0 °F - 46.0 °F 93% 29.62 in 3.0 mi SW 23.0 mph - 0.00 in Rain Light Rain
5:46 AM 48.0 °F - 45.0 °F 89% 29.64 in 4.0 mi SW 23.0 mph 29.9 mph 0.01 in Rain Light Rain
5:53 AM 48.0 °F - 45.0 °F 89% 29.65 in 7.0 mi WSW 23.0 mph 32.2 mph 0.01 in   Overcast
6:43 AM 46.0 °F 37.8 °F 43.0 °F 89% 29.67 in 10.0 mi WSW 23.0 mph 33.4 mph N/A   Mostly Cloudy
6:53 AM 46.0 °F 38.3 °F 43.0 °F 89% 29.68 in 9.0 mi WSW 20.7 mph 34.5 mph N/A   Mostly Cloudy
7:34 AM 45.0 °F 36.6 °F 42.1 °F 90% 29.69 in 10.0 mi WSW 21.9 mph 32.2 mph N/A   Scattered Clouds
7:50 AM 44.6 °F 37.4 °F 42.8 °F 93% 29.71 in 10.0 mi WSW 16.1 mph 26.5 mph N/A   Mostly Cloudy
7:53 AM 45.0 °F 38.5 °F 42.1 °F 90% 29.73 in 10.0 mi West 13.8 mph 26.5 mph N/A   Mostly Cloudy
8:20 AM 45.0 °F 37.4 °F 39.9 °F 82% 29.73 in 10.0 mi WSW 18.4 mph 28.8 mph N/A   Scattered Clouds
8:53 AM 45.0 °F 36.6 °F 39.9 °F 82% 29.76 in 10.0 mi WSW 21.9 mph 38.0 mph N/A   Clear
9:53 AM 46.9 °F - 39.0 °F 74% 29.81 in 10.0 mi WSW 17.3 mph 26.5 mph N/A   Clear
10:53 AM 48.9 °F - 39.0 °F 69% 29.86 in 10.0 mi SW 16.1 mph 24.2 mph N/A   Scattered Clouds
11:53 AM 48.0 °F - 36.0 °F 63% 29.88 in 10.0 mi WSW 11.5 mph - N/A   Partly Cloudy
12:53 PM 48.9 °F - 35.1 °F 59% 29.89 in 10.0 mi WSW 10.4 mph - N/A   Mostly Cloudy
1:53 PM 51.1 °F - 35.1 °F 54% 29.87 in 10.0 mi WSW 11.5 mph - N/A   Partly Cloudy
2:53 PM 50.0 °F - 36.0 °F 59% 29.86 in 10.0 mi SSW 9.2 mph - N/A   Scattered Clouds
3:53 PM 51.1 °F - 37.0 °F 59% 29.84 in 10.0 mi SSW 12.7 mph - N/A   Clear
4:53 PM 46.9 °F - 36.0 °F 66% 29.83 in 10.0 mi SW 5.8 mph - N/A   Clear
5:53 PM 43.0 °F - 36.0 °F 76% 29.82 in 10.0 mi Calm Calm - N/A   Partly Cloudy
6:53 PM 37.9 °F 34.4 °F 35.1 °F 89% 29.81 in 10.0 mi SW 4.6 mph - N/A   Mostly Cloudy
7:53 PM 41.0 °F 39.0 °F 37.0 °F 86% 29.79 in 10.0 mi SE 3.5 mph - 0.00 in Rain Light Rain
8:50 PM 41.0 °F - 39.2 °F 93% 29.75 in 2.5 mi Calm Calm - 0.05 in Rain Rain
8:51 PM 41.0 °F - 39.9 °F 96% 29.76 in 2.5 mi Calm Calm - 0.05 in Rain Rain
9:05 PM 41.0 °F - 39.9 °F 96% 29.74 in 6.0 mi Calm Calm - 0.03 in Rain Light Rain
9:31 PM 41.0 °F 39.0 °F 39.9 °F 96% 29.72 in 2.5 mi West 3.5 mph - 0.10 in Rain Rain
9:40 PM 42.1 °F 40.2 °F 41.0 °F 96% 29.72 in 5.0 mi West 3.5 mph - 0.10 in Rain Light Rain
9:53 PM 42.1 °F - 41.0 °F 96% 29.72 in 4.0 mi Calm Calm - 0.12 in Rain Rain
10:27 PM 42.1 °F 40.2 °F 41.0 °F 96% 29.71 in 2.5 mi WNW 3.5 mph - 0.03 in Rain Light Rain
10:53 PM 43.0 °F 39.5 °F 41.0 °F 93% 29.73 in 2.5 mi West 5.8 mph - 0.08 in Rain Light Rain
11:00 PM 44.1 °F 39.0 °F 42.1 °F 93% 29.73 in 4.0 mi WSW 9.2 mph - 0.00 in Rain Light Rain
11:29 PM 46.0 °F 39.9 °F 44.1 °F 93% 29.74 in 10.0 mi WSW 13.8 mph - 0.01 in Rain Light Rain
11:49 PM 48.2 °F - 44.6 °F 87% 29.74 in 10.0 mi SW 18.4 mph - 0.01 in   Overcast
11:53 PM 48.0 °F - 45.0 °F 89% 29.75 in 9.0 mi SW 16.1 mph 24.2 mph 0.01 in Rain Light Rain